Regional Weather Roundup
Issued by NWS

Home | Current Version | Previous Version | Graphics & Text | Print | Product List | Glossary On
Versions: 1 2 3 4 5 6 7 8 9 10 11 12 13 14 15 16 17 18 19 20 21 22 23 24 25 26 27 28 29 30 31 32 33 34 35 36 37 38 39 40 41 42 43 44 45 46 47 48 49 50
000
ASUS43 KMPX 182010
RWRMN
WEATHER ROUNDUP FOR MINNESOTA
NATIONAL WEATHER SERVICE TWIN CITIES/CHANHASSEN MN
300 PM CDT THU SEP 18 2014


NOTE: "FAIR" INDICATES FEW OR NO CLOUDS BELOW 12,000 FEET WITH NO
SIGNIFICANT WEATHER AND/OR OBSTRUCTIONS TO VISIBILITY. N/A MEANS
CURRENT SKY AND/OR WEATHER CONDITIONS ARE NOT AVAILABLE.

MNZ060>063-068>070-182100-
   Twin Cities Metro

CITY           SKY/WX    TMP DP  RH WIND       PRES   REMARKS
TWIN CITIES    MOSUNNY   72  56  57 E9        30.03F
ST PAUL        SUNNY     72  57  59 SE6       30.04F
CRYSTAL        SUNNY     73  55  53 S8        30.02F
BLAINE         MOSUNNY   72  57  60 SE12      30.04F
LAKEVILLE      MOSUNNY   73  54  49 S8        30.03F
SOUTH ST PAUL  SUNNY     73  56  54 E6        30.03F
LAKE ELMO      FAIR      70  57  64 SE6       30.06F
$$
MNZ001>005-007-008-013>017-022>024-027-028-182100-
   Northwest Minnesota

CITY           SKY/WX    TMP DP  RH WIND       PRES   REMARKS
BEMIDJI        SUNNY     65  50  58 SE13      29.97F
HALLOCK        SUNNY     72  54  53 S17G23    29.85F
ROSEAU         SUNNY     68  54  60 S12       29.91F
WARROAD        SUNNY     57  52  82 E13       29.93F
THIEF RVR FALL SUNNY     72  54  53 S14       29.89F
CROOKSTON      SUNNY     73  55  53 S14       29.88F
FOSSTON        SUNNY     73  52  46 S16       29.92F
DETROIT LAKES  SUNNY     66  54  63 SE14      29.94F
MOORHEAD       SUNNY     72  59  64 S14G21    29.90F
PARK RAPIDS    MOSUNNY   65  50  58 S14       29.98F
MAHNOMEN       FAIR      70  54  57 S14       29.91F
$$
MNZ006-009>011-018-025>026-182100-
   North Central Minnesota

CITY           SKY/WX    TMP DP  RH WIND       PRES   REMARKS
BAUDETTE       SUNNY     57  48  72 VRB7      29.97F
FLAG ISLAND    CLOUDY    50  46  87 SE9       29.95F
INTL FALLS     SUNNY     60  46  59 SE7       30.00F
WASKISH        SUNNY     64  52  63 SE3       29.97F
BIG FORK       SUNNY     63  50  63 SE6       30.02F
LONGVILLE      SUNNY     61  50  67 SE9       30.02F
GRAND RAPIDS   MOSUNNY   61  46  59 S12       30.03F
CRANE LAKE     PTSUNNY   55  45  67 S5        30.06F
ORR            SUNNY     61  45  55 S9        30.02F
COOK           SUNNY     57  46  67 SE8       30.05F
WALKER         FAIR      60  49  67 E7        30.00F
$$
MNZ012-019>021-037-182100-
   Northeast Minnesota

CITY           SKY/WX    TMP DP  RH WIND       PRES   REMARKS
DULUTH         CLOUDY    48  42  80 E10       30.10F
ELY            CLOUDY    50  39  66 SE10      30.08F
HIBBING        SUNNY     61  46  57 SE9       30.05F
EVELETH        SUNNY     57  43  58 SE10      30.07F
DULUTH HARBOR  CLOUDY    50  45  81 E13       30.13F
TWO HARBORS    CLOUDY    46  37  71 E8        30.11F
SILVER BAY     MOSUNNY   46  43  87 E8        30.12F
GRAND MARAIS     N/A     47  35  63 E6        30.17F
G MARAIS ARPRT CLOUDY    43  34  70 SE7       30.14F
$$
MNZ029>031-032-039>041-046>048-054>057-064-182100-
   West Central Minnesota

CITY           SKY/WX    TMP DP  RH WIND       PRES   REMARKS
FERGUS FALLS   MOSUNNY   70  54  56 S18G25    29.93F
WHEATON        SUNNY     72  57  60 SE14      29.93F
MORRIS         SUNNY     75  57  53 S17       29.93F
ALEXANDRIA     MOSUNNY   70  55  59 S14       29.99F
ELBOW LAKE     FAIR      71  58  62 S17       29.95F
WADENA         SUNNY     64  54  68 SE13      29.98F
GLENWOOD       SUNNY     72  57  60 S15       29.99F
APPLETON       MOSUNNY   79  54  41 S12G18    29.93F
BENSON         PTSUNNY   75  57  53 S16G22    29.95F
ORTONVILLE     MOSUNNY   77  55  47 S14       29.92F
MADISON        SUNNY     81  55  41 S15       29.93F
WILLMAR        FAIR      75  54  46 S7G16     29.99F
$$
MNZ033>034-036-042>043-049>051-058-059-182100-
   Central Minnesota

CITY           SKY/WX    TMP DP  RH WIND       PRES   REMARKS
ST CLOUD       SUNNY     71  54  54 SE14      30.02F
SAUK CENTRE    FAIR      70  55  57 SE14G21   30.00F
PAYNESVILLE    MOSUNNY   69  55  61 E10       30.00F
AITKIN         MOSUNNY   63  52  67 E5        30.03F
PINE RIVER     MOSUNNY   57  52  82 SE9       30.05F
BRAINERD       SUNNY     60  51  72 VRB6      30.03F
STAPLES        SUNNY     63  52  67 SE9       30.00F
LONG PRAIRIE   FAIR      64  54  68 E12G17    30.01F
LITTLE FALLS   MOSUNNY   63  52  67 E8        30.02F
LITCHFIELD     MOSUNNY   73  55  53 S6        30.01F
BUFFALO        SUNNY     71  55  56 SE8       30.03F
MAPLE LAKE     MOSUNNY   73  59  62 E7        30.03F
$$
MNZ037-044-045-052-053-182100-
   East Central Minnesota

CITY           SKY/WX    TMP DP  RH WIND       PRES   REMARKS
PRINCETON      SUNNY     68  55  64 E6        30.05F
MORA           PTSUNNY   59  52  77 E6        30.07F
CAMBRIDGE      SUNNY     68  54  60 E3        30.03F
RUSH CITY      SUNNY     65  55  70 CALM      30.06F
MOOSE LAKE     CLOUDY    54  46  76 E6        30.06F
HINCKLEY       FAIR      61  54  77 CALM      30.07F
CLOQUET        CLOUDY    48  43  81 E8        30.10F
MCGREGOR       PTSUNNY   55  48  76 SE8       30.07F
$$
MNZ071>073-080-081-089-090-097-098-182100-
   Southwest Minnesota

CITY           SKY/WX    TMP DP  RH WIND       PRES   REMARKS
MONTEVIDEO     MOSUNNY   77  55  47 S8G17     29.96F
GRANITE FALLS  MOSUNNY   77  55  47 SE16      29.98F
CANBY          MOSUNNY   76  55  47 S13G20    29.95F
MARSHALL       MOSUNNY   75  52  43 S18G25    29.96F
REDWOOD FALLS  MOSUNNY   76  52  43 SE14      29.98F
OLIVIA         MOSUNNY   73  54  49 S13G18    29.98F
PIPESTONE      SUNNY     75  52  43 S18       29.98F
WINDOM         SUNNY     73  52  46 SE12      30.00F
WORTHINGTON    SUNNY     73  52  46 S14       30.01F
JACKSON        SUNNY     73  52  46 S13       30.02F
TRACY          MOSUNNY   75  55  48 S12G20    29.99F
SLAYTON        MOSUNNY   74  50  41 SE9G23    30.00F
$$
MNZ065>067-074>077-082>085-091>093-182100-
   South Central Minnesota

CITY           SKY/WX    TMP DP  RH WIND       PRES   REMARKS
MANKATO        SUNNY     73  52  46 S12       30.02F
NEW ULM        SUNNY     73  54  49 S12       30.00F
ST JAMES       SUNNY     75  52  43 SE8       30.02F
FAIRMONT       SUNNY     73  46  38 S12       30.02F
GLENCOE        PTSUNNY   76  49  38 S8        30.00F
FARIBAULT      MOSUNNY   77  46  33 SE7       30.04F
OWATONNA       SUNNY     73  52  46 SE12      30.04F
WASECA         MOSUNNY   72  45  37 S7        30.05F
ALBERT LEA     SUNNY     73  52  46 S7        30.05F
$$
MNZ078>079-086>088-094>096-182100-
   Southeast Minnesota

CITY           SKY/WX    TMP DP  RH WIND       PRES   REMARKS
ROCHESTER      PTSUNNY   72  53  51 S10       30.07F
RED WING       SUNNY     72  55  56 E12       30.04F
STANTON        MOSUNNY   74  51  44 S5        30.03F
DODGE CENTER   MOSUNNY   72  54  53 S13       30.06F
WINONA         SUNNY     70  57  64 SE9       30.08F
AUSTIN         SUNNY     72  54  53 S7G17     30.05F
PRESTON        SUNNY     69  58  67 S10       30.08F
$$
ABBREVIATIONS USED IN REMARKS
   TC - TEMPERATURES IN CELSIUS
  WCI - WIND CHILL INDEX
   HX - HEAT INDEX
  VSB - VISIBILITY
$$


USA.gov is the U.S. government's official web portal to all federal, state and local government web resources and services.